| time (UTC) | temp F | wind direction | speed knots | gust knots | rain 1hr in | rain 24hr in | rain mn in | humidity % | barometer mb |
| 20260502224000 | 71 | 336 | 7.0 | 12.2 | 0.00 | 0.00 | 0.00 | 40 | 1013.9 |
| 20260502223500 | 72 | 292 | 8.7 | 12.2 | 0.00 | 0.00 | 0.00 | 42 | 1013.9 |
| 20260502223000 | 72 | 315 | 5.2 | 10.4 | 0.00 | 0.00 | 0.00 | 42 | 1013.9 |
| 20260502222500 | 72 | 332 | 8.7 | 13.0 | 0.00 | 0.00 | 0.00 | 39 | 1013.9 |
| 20260502222000 | 71 | 339 | 9.6 | 13.0 | 0.00 | 0.00 | 0.00 | 37 | 1013.9 |
| 20260502221500 | 72 | 318 | 7.8 | 13.9 | 0.00 | 0.00 | 0.00 | 39 | 1013.8 |
| 20260502221000 | 71 | 294 | 7.0 | 13.9 | 0.00 | 0.00 | 0.00 | 36 | 1013.9 |
| 20260502220500 | 71 | 334 | 3.5 | 14.8 | 0.00 | 0.00 | 0.00 | 35 | 1013.8 |
| 20260502220000 | 71 | 332 | 10.4 | 14.8 | 0.00 | 0.00 | 0.00 | 37 | 1013.8 |
| 20260502215500 | 72 | 331 | 6.1 | 11.3 | 0.00 | 0.00 | 0.00 | 40 | 1013.9 |
| 20260502215000 | 71 | 323 | 6.1 | 10.4 | 0.00 | 0.00 | 0.00 | 38 | 1013.8 |
| 20260502214500 | 71 | 352 | 4.3 | 10.4 | 0.00 | 0.00 | 0.00 | 40 | 1013.9 |
| 20260502214000 | 71 | 326 | 4.3 | 13.0 | 0.00 | 0.00 | 0.00 | 43 | 1013.9 |
| 20260502213500 | 71 | 341 | 6.1 | 13.0 | 0.00 | 0.00 | 0.00 | 39 | 1013.9 |
| 20260502213000 | 71 | 331 | 8.7 | 13.0 | 0.00 | 0.00 | 0.00 | 42 | 1013.9 |
| 20260502212500 | 71 | 317 | 7.8 | 15.6 | 0.00 | 0.00 | 0.00 | 39 | 1013.9 |
| 20260502212000 | 71 | 339 | 7.8 | 15.6 | 0.00 | 0.00 | 0.00 | 39 | 1014.0 |
| 20260502211500 | 71 | 300 | 8.7 | 12.2 | 0.00 | 0.00 | 0.00 | 38 | 1014.1 |
| 20260502211000 | 71 | 318 | 12.2 | 13.9 | 0.00 | 0.00 | 0.00 | 41 | 1014.1 |
| 20260502210500 | 72 | 345 | 7.0 | 13.9 | 0.00 | 0.00 | 0.00 | 39 | 1014.2 |
| 20260502210000 | 71 | 321 | 5.2 | 13.9 | 0.00 | 0.00 | 0.00 | 37 | 1014.3 |
| 20260502205500 | 71 | 311 | 7.0 | 12.2 | 0.00 | 0.00 | 0.00 | 37 | 1014.3 |
| 20260502205000 | 72 | 327 | 11.3 | 11.3 | 0.00 | 0.00 | 0.00 | 41 | 1014.4 |
| 20260502204500 | 71 | 294 | 6.1 | 11.3 | 0.00 | 0.00 | 0.00 | 36 | 1014.4 |
| 20260502204000 | 71 | 320 | 7.0 | 12.2 | 0.00 | 0.00 | 0.00 | 36 | 1014.4 |
| 20260502203500 | 71 | 346 | 6.1 | 14.8 | 0.00 | 0.00 | 0.00 | 37 | 1014.5 |
| 20260502203000 | 72 | 308 | 7.8 | 14.8 | 0.00 | 0.00 | 0.00 | 38 | 1014.5 |
| 20260502202501 | 71 | 292 | 7.0 | 11.3 | 0.00 | 0.00 | 0.00 | 38 | 1014.5 |
| 20260502202000 | 71 | 340 | 8.7 | 14.8 | 0.00 | 0.00 | 0.00 | 37 | 1014.6 |
| 20260502201500 | 71 | 342 | 7.0 | 14.8 | 0.00 | 0.00 | 0.00 | 35 | 1014.7 |
| 20260502201000 | 70 | 326 | 12.2 | 13.9 | 0.00 | 0.00 | 0.00 | 41 | 1014.6 |
| 20260502200500 | 70 | 328 | 7.8 | 15.6 | 0.00 | 0.00 | 0.00 | 41 | 1014.9 |
| 20260502200000 | 71 | 328 | 10.4 | 15.6 | 0.00 | 0.00 | 0.00 | 35 | 1014.9 |
| 20260502195500 | 71 | 318 | 13.9 | 13.9 | 0.00 | 0.00 | 0.00 | 36 | 1014.7 |
| 20260502195000 | 70 | 294 | 7.8 | 14.8 | 0.00 | 0.00 | 0.00 | 37 | 1014.8 |
| 20260502194500 | 70 | 313 | 9.6 | 14.8 | 0.00 | 0.00 | 0.00 | 41 | 1014.9 |
| 20260502194000 | 70 | 328 | 6.1 | 16.5 | 0.00 | 0.00 | 0.00 | 41 | 1015.0 |
| 20260502193500 | 70 | 296 | 12.2 | 17.4 | 0.00 | 0.00 | 0.00 | 40 | 1014.9 |
| 20260502193000 | 70 | 298 | 10.4 | 17.4 | 0.00 | 0.00 | 0.00 | 40 | 1015.0 |
| 20260502192500 | 72 | 294 | 12.2 | 17.4 | 0.00 | 0.00 | 0.00 | 37 | 1015.1 |
| 20260502192000 | 71 | 314 | 11.3 | 17.4 | 0.00 | 0.00 | 0.00 | 44 | 1015.2 |
| 20260502191500 | 72 | 304 | 13.9 | 18.2 | 0.00 | 0.00 | 0.00 | 41 | 1015.1 |
| 20260502191000 | 71 | 310 | 5.2 | 18.2 | 0.00 | 0.00 | 0.00 | 34 | 1015.2 |
| 20260502190500 | 71 | 315 | 10.4 | 12.2 | 0.00 | 0.00 | 0.00 | 41 | 1015.3 |
| 20260502190000 | 71 | 300 | 11.3 | 12.2 | 0.00 | 0.00 | 0.00 | 37 | 1015.3 |
| 20260502185500 | 70 | 313 | 5.2 | 12.2 | 0.00 | 0.00 | 0.00 | 34 | 1015.4 |
| 20260502185000 | 71 | 319 | 6.1 | 18.2 | 0.00 | 0.00 | 0.00 | 36 | 1015.4 |
| 20260502184500 | 70 | 315 | 10.4 | 18.2 | 0.00 | 0.00 | 0.00 | 35 | 1015.4 |
| 20260502184000 | 71 | 294 | 16.5 | 18.2 | 0.00 | 0.00 | 0.00 | 41 | 1015.3 |
| 20260502183501 | 70 | 286 | 8.7 | 15.6 | 0.00 | 0.00 | 0.00 | 40 | 1015.5 |
| 20260502183000 | 70 | 298 | 12.2 | 15.6 | 0.00 | 0.00 | 0.00 | 36 | 1015.6 |
| 20260502182500 | 70 | 301 | 6.1 | 15.6 | 0.00 | 0.00 | 0.00 | 35 | 1015.5 |
| 20260502182000 | 70 | 278 | 13.0 | 13.0 | 0.00 | 0.00 | 0.00 | 40 | 1015.5 |
| 20260502181500 | 69 | 277 | 7.8 | 13.9 | 0.00 | 0.00 | 0.00 | 38 | 1015.7 |
| 20260502181000 | 69 | 300 | 9.6 | 13.9 | 0.00 | 0.00 | 0.00 | 41 | 1015.7 |
| 20260502180500 | 69 | 248 | 6.1 | 12.2 | 0.00 | 0.00 | 0.00 | 43 | 1015.8 |
| 20260502170500 | 68 | 256 | 6.1 | 15.6 | 0.00 | 0.00 | 0.00 | 40 | 1016.3 |
| 20260502164000 | 67 | 300 | 4.3 | 8.7 | 0.00 | 0.00 | 0.00 | 43 | 1016.5 |
| 20260502163500 | 66 | 244 | 4.3 | 8.7 | 0.00 | 0.00 | 0.00 | 43 | 1016.5 |
| 20260502163000 | 67 | 275 | 4.3 | 10.4 | 0.00 | 0.00 | 0.00 | 43 | 1016.4 |
| 20260502162500 | 67 | 285 | 6.1 | 10.4 | 0.00 | 0.00 | 0.00 | 45 | 1016.4 |
| 20260502162000 | 66 | 273 | 1.7 | 8.7 | 0.00 | 0.00 | 0.00 | 40 | 1016.4 |
| 20260502161500 | 66 | 249 | 3.5 | 7.0 | 0.00 | 0.00 | 0.00 | 46 | 1016.4 |
| 20260502161000 | 65 | 247 | 3.5 | 10.4 | 0.00 | 0.00 | 0.00 | 46 | 1016.4 |
| 20260502160500 | 66 | 236 | 5.2 | 10.4 | 0.00 | 0.00 | 0.00 | 49 | 1016.5 |
| 20260502152000 | 64 | 255 | 2.6 | 8.7 | 0.00 | 0.00 | 0.00 | 42 | 1016.5 |
| 20260502151500 | 64 | 332 | 3.5 | 7.8 | 0.00 | 0.00 | 0.00 | 42 | 1016.5 |
| 20260502151000 | 64 | 248 | 3.5 | 6.1 | 0.00 | 0.00 | 0.00 | 43 | 1016.5 |
| 20260502150500 | 63 | 299 | 2.6 | 6.1 | 0.00 | 0.00 | 0.00 | 47 | 1016.5 |
| 20260502130500 | 54 | 285 | 2.6 | 2.6 | 0.00 | 0.00 | 0.00 | 86 | 1015.5 |
| 20260502123500 | 50 | 273 | 1.7 | 2.6 | 0.00 | 0.00 | 0.00 | 93 | 1014.9 |
| 20260502123000 | 50 | 290 | 2.6 | 2.6 | 0.00 | 0.00 | 0.00 | 94 | 1014.7 |
| 20260502122500 | 49 | 303 | 1.7 | 1.7 | 0.00 | 0.00 | 0.00 | 94 | 1014.6 |
| 20260502122000 | 49 | 332 | 0.9 | 1.7 | 0.00 | 0.00 | 0.00 | 93 | 1014.6 |
| 20260502121505 | 49 | 276 | 0.9 | 1.7 | 0.00 | 0.00 | 0.00 | 94 | 1014.5 |
| 20260502121000 | 49 | 287 | 1.7 | 2.6 | 0.00 | 0.00 | 0.00 | 94 | 1014.5 |
| 20260502120505 | 49 | 280 | 0.9 | 2.6 | 0.00 | 0.00 | 0.00 | 94 | 1014.4 |
| 20260502115500 | 48 | 297 | 2.6 | 2.6 | 0.00 | 0.00 | 0.00 | 94 | 1014.3 |
| 20260502115000 | 48 | 310 | 1.7 | 1.7 | 0.00 | 0.00 | 0.00 | 94 | 1014.3 |
| 20260502114500 | 48 | 317 | 0.9 | 1.7 | 0.00 | 0.00 | 0.00 | 94 | 1014.1 |
| 20260502114000 | 48 | 299 | 1.7 | 1.7 | 0.00 | 0.00 | 0.00 | 94 | 1014.0 |
| 20260502113500 | 48 | 318 | 0.9 | 2.6 | 0.00 | 0.00 | 0.00 | 93 | 1013.9 |
| 20260502113000 | 48 | 280 | 1.7 | 2.6 | 0.00 | 0.00 | 0.00 | 93 | 1013.8 |
| 20260502112500 | 48 | 296 | 1.7 | 1.7 | 0.00 | 0.00 | 0.00 | 94 | 1013.8 |
| 20260502112000 | 48 | 312 | 1.7 | 1.7 | 0.00 | 0.00 | 0.00 | 93 | 1013.8 |
| 20260502111500 | 48 | 318 | 0.9 | 0.9 | 0.00 | 0.00 | 0.00 | 93 | 1013.7 |
| 20260502111000 | 48 | 345 | 0.9 | 0.9 | 0.00 | 0.00 | 0.00 | 93 | 1013.6 |
| 20260502110500 | 48 | 301 | 0.9 | 0.9 | 0.00 | 0.00 | 0.00 | 93 | 1013.6 |
| 20260502110000 | 48 | 278 | 0.9 | 0.9 | 0.00 | 0.00 | 0.00 | 93 | 1013.7 |
| 20260502105500 | 48 | 85 | 0.9 | 1.7 | 0.00 | 0.00 | 0.00 | 93 | 1013.7 |
| 20260502105000 | 48 | 261 | 0.9 | 1.7 | 0.00 | 0.00 | 0.00 | 93 | 1013.6 |
| 20260502104500 | 48 | 234 | 0.9 | 0.9 | 0.00 | 0.00 | 0.00 | 93 | 1013.5 |
| 20260502104000 | 48 | 233 | 0.9 | 1.7 | 0.00 | 0.00 | 0.00 | 93 | 1013.5 |
| 20260502103500 | 49 | 262 | 0.9 | 1.7 | 0.00 | 0.00 | 0.00 | 93 | 1013.5 |
| 20260502103000 | 49 | 263 | 0.9 | 2.6 | 0.00 | 0.00 | 0.00 | 93 | 1013.5 |
| 20260502102500 | 49 | 268 | 0.9 | 2.6 | 0.00 | 0.00 | 0.00 | 93 | 1013.5 |
| 20260502102000 | 49 | 279 | 2.6 | 2.6 | 0.00 | 0.00 | 0.00 | 93 | 1013.4 |
| 20260502101500 | 49 | 282 | 1.7 | 1.7 | 0.00 | 0.00 | 0.00 | 93 | 1013.4 |
| 20260502101000 | 49 | 283 | 1.7 | 2.6 | 0.00 | 0.00 | 0.00 | 92 | 1013.3 |
| 20260502100500 | 49 | 282 | 1.7 | 2.6 | 0.00 | 0.00 | 0.00 | 92 | 1013.3 |
| 20260502091500 | 50 | 297 | 1.7 | 1.7 | 0.00 | 0.00 | 0.00 | 90 | 1012.9 |
| 20260502091000 | 50 | 286 | 1.7 | 1.7 | 0.00 | 0.00 | 0.00 | 90 | 1012.9 |
| 20260502090500 | 50 | 290 | 1.7 | 1.7 | 0.00 | 0.00 | 0.00 | 90 | 1012.9 |
| 20260502071500 | 54 | 307 | 0.0 | 1.7 | 0.00 | 0.00 | 0.00 | 84 | 1012.9 |
| 20260502071000 | 54 | 348 | 0.9 | 1.7 | 0.00 | 0.00 | 0.00 | 82 | 1013.0 |
| 20260502070500 | 55 | 358 | 0.9 | 1.7 | 0.00 | 0.00 | 0.00 | 84 | 1012.9 |
| 20260502070000 | 55 | 313 | 0.9 | 2.6 | 0.00 | 0.00 | 0.00 | 83 | 1013.1 |
| 20260502065500 | 55 | 319 | 0.9 | 2.6 | 0.00 | 0.00 | 0.00 | 82 | 1013.1 |
| 20260502065000 | 55 | 326 | 1.7 | 3.5 | 0.00 | 0.00 | 0.00 | 83 | 1013.1 |
| 20260502064500 | 55 | 328 | 2.6 | 3.5 | 0.00 | 0.00 | 0.00 | 82 | 1013.2 |
| 20260502064000 | 55 | 329 | 2.6 | 4.3 | 0.00 | 0.00 | 0.00 | 82 | 1013.2 |
| 20260502063500 | 55 | 314 | 3.5 | 4.3 | 0.00 | 0.00 | 0.00 | 82 | 1013.3 |
| 20260502063000 | 55 | 332 | 2.6 | 3.5 | 0.00 | 0.00 | 0.00 | 83 | 1013.3 |
| 20260502062500 | 55 | 326 | 2.6 | 3.5 | 0.00 | 0.00 | 0.00 | 82 | 1013.4 |
| 20260502062000 | 55 | 338 | 3.5 | 4.3 | 0.00 | 0.00 | 0.00 | 81 | 1013.4 |
| 20260502061500 | 55 | 319 | 3.5 | 4.3 | 0.00 | 0.00 | 0.00 | 82 | 1013.3 |
| 20260502061001 | 55 | 333 | 2.6 | 4.3 | 0.00 | 0.00 | 0.00 | 80 | 1013.2 |
| 20260502060500 | 55 | 325 | 3.5 | 4.3 | 0.00 | 0.00 | 0.00 | 82 | 1013.2 |
| 20260502060000 | 55 | 328 | 3.5 | 4.3 | 0.00 | 0.00 | 0.00 | 81 | 1013.2 |
| 20260502055500 | 55 | 321 | 3.5 | 4.3 | 0.00 | 0.00 | 0.00 | 81 | 1013.1 |
| 20260502055000 | 55 | 326 | 3.5 | 3.5 | 0.00 | 0.00 | 0.00 | 86 | 1013.2 |
| 20260502054500 | 55 | 319 | 2.6 | 3.5 | 0.00 | 0.00 | 0.00 | 88 | 1013.2 |
| 20260502054000 | 55 | 319 | 3.5 | 3.5 | 0.00 | 0.00 | 0.00 | 87 | 1013.3 |
| 20260502053500 | 55 | 319 | 1.7 | 2.6 | 0.00 | 0.00 | 0.00 | 86 | 1013.4 |
| 20260502053000 | 55 | 311 | 1.7 | 1.7 | 0.00 | 0.00 | 0.00 | 84 | 1013.4 |
| 20260502052501 | 55 | 300 | 0.9 | 1.7 | 0.00 | 0.00 | 0.00 | 82 | 1013.5 |
| 20260502052000 | 55 | 282 | 0.9 | 1.7 | 0.00 | 0.00 | 0.00 | 83 | 1013.5 |
| 20260502051500 | 55 | 263 | 0.9 | 1.7 | 0.00 | 0.00 | 0.00 | 82 | 1013.4 |
| 20260502051000 | 55 | 275 | 1.7 | 1.7 | 0.00 | 0.00 | 0.00 | 84 | 1013.3 |
| 20260502050500 | 55 | 275 | 0.9 | 1.7 | 0.00 | 0.00 | 0.00 | 85 | 1013.3 |
| 20260502050000 | 55 | 271 | 0.9 | 2.6 | 0.00 | 0.00 | 0.00 | 86 | 1013.2 |
| 20260502045500 | 55 | 279 | 0.9 | 2.6 | 0.00 | 0.00 | 0.00 | 86 | 1013.2 |
| 20260502045000 | 55 | 272 | 2.6 | 2.6 | 0.00 | 0.00 | 0.00 | 85 | 1013.1 |
| 20260502044500 | 55 | 270 | 1.7 | 1.7 | 0.00 | 0.00 | 0.00 | 86 | 1013.1 |
| 20260502044000 | 55 | 275 | 0.9 | 1.7 | 0.00 | 0.00 | 0.00 | 86 | 1013.1 |
| 20260502043500 | 55 | 292 | 1.7 | 2.6 | 0.00 | 0.00 | 0.00 | 86 | 1013.0 |
| 20260502043000 | 55 | 294 | 1.7 | 3.5 | 0.00 | 0.00 | 0.00 | 84 | 1013.0 |
| 20260502042500 | 55 | 294 | 2.6 | 3.5 | 0.00 | 0.00 | 0.00 | 84 | 1013.1 |
| 20260502042000 | 55 | 288 | 2.6 | 3.5 | 0.00 | 0.00 | 0.00 | 83 | 1013.1 |
| 20260502041500 | 55 | 282 | 2.6 | 2.6 | 0.00 | 0.00 | 0.00 | 82 | 1013.1 |
| 20260502041000 | 56 | 289 | 1.7 | 2.6 | 0.00 | 0.00 | 0.00 | 83 | 1013.1 |
| 20260502040500 | 56 | 287 | 2.6 | 2.6 | 0.00 | 0.00 | 0.00 | 82 | 1013.2 |
| 20260502040000 | 57 | 327 | 2.6 | 3.5 | 0.00 | 0.00 | 0.00 | 75 | 1013.2 |
| 20260502035500 | 57 | 333 | 1.7 | 3.5 | 0.00 | 0.00 | 0.00 | 71 | 1013.1 |
| 20260502035000 | 58 | 332 | 3.5 | 3.5 | 0.00 | 0.00 | 0.00 | 69 | 1013.2 |
| 20260502034500 | 58 | 339 | 2.6 | 3.5 | 0.00 | 0.00 | 0.00 | 67 | 1013.2 |
| 20260502034000 | 58 | 337 | 2.6 | 2.6 | 0.00 | 0.00 | 0.00 | 67 | 1013.2 |
| 20260502033500 | 58 | 335 | 2.6 | 2.6 | 0.00 | 0.00 | 0.00 | 67 | 1013.2 |
| 20260502033001 | 58 | 342 | 2.6 | 2.6 | 0.00 | 0.00 | 0.00 | 68 | 1013.2 |
| 20260502032500 | 58 | 345 | 2.6 | 2.6 | 0.00 | 0.00 | 0.00 | 66 | 1013.1 |
| 20260502032000 | 58 | 354 | 2.6 | 3.5 | 0.00 | 0.00 | 0.00 | 66 | 1013.1 |
| 20260502031500 | 58 | 349 | 2.6 | 3.5 | 0.00 | 0.00 | 0.00 | 65 | 1013.0 |
| 20260502031000 | 58 | 355 | 2.6 | 3.5 | 0.00 | 0.00 | 0.00 | 66 | 1012.9 |
| 20260502030500 | 59 | 347 | 2.6 | 2.6 | 0.00 | 0.00 | 0.00 | 66 | 1013.0 |
| 20260502030000 | 59 | 8 | 1.7 | 2.6 | 0.00 | 0.00 | 0.00 | 65 | 1013.0 |
| 20260502025500 | 59 | 334 | 0.9 | 1.7 | 0.00 | 0.00 | 0.00 | 66 | 1013.1 |
| 20260502025000 | 59 | 333 | 1.7 | 3.5 | 0.00 | 0.00 | 0.00 | 64 | 1012.9 |
| 20260502024500 | 60 | 37 | 1.7 | 3.5 | 0.00 | 0.00 | 0.00 | 63 | 1012.8 |
| 20260502024000 | 59 | 17 | 0.9 | 2.6 | 0.00 | 0.00 | 0.00 | 63 | 1012.7 |
| 20260502023500 | 59 | 345 | 0.9 | 3.5 | 0.00 | 0.00 | 0.00 | 65 | 1012.6 |
| 20260502023000 | 60 | 354 | 1.7 | 7.0 | 0.00 | 0.00 | 0.00 | 63 | 1012.7 |
| 20260502022500 | 60 | 344 | 2.6 | 7.0 | 0.00 | 0.00 | 0.00 | 61 | 1012.5 |
| 20260502022000 | 60 | 14 | 5.2 | 5.2 | 0.00 | 0.00 | 0.00 | 60 | 1012.4 |
| 20260502021500 | 60 | 10 | 4.3 | 5.2 | 0.00 | 0.00 | 0.00 | 61 | 1012.3 |
| 20260502021000 | 60 | 350 | 1.7 | 5.2 | 0.00 | 0.00 | 0.00 | 61 | 1012.5 |
| 20260502020500 | 60 | 13 | 3.5 | 5.2 | 0.00 | 0.00 | 0.00 | 63 | 1012.3 |
| 20260502020000 | 60 | 6 | 3.5 | 4.3 | 0.00 | 0.00 | 0.00 | 64 | 1012.5 |
| 20260502015500 | 60 | 29 | 2.6 | 3.5 | 0.00 | 0.00 | 0.00 | 65 | 1012.6 |
| 20260502015000 | 60 | 58 | 2.6 | 3.5 | 0.00 | 0.00 | 0.00 | 65 | 1012.7 |
| 20260502014500 | 60 | 22 | 2.6 | 2.6 | 0.00 | 0.00 | 0.00 | 64 | 1012.8 |
| 20260502014000 | 60 | 10 | 1.7 | 3.5 | 0.00 | 0.00 | 0.00 | 62 | 1012.8 |
| 20260502013500 | 60 | 353 | 2.6 | 3.5 | 0.00 | 0.00 | 0.00 | 61 | 1012.8 |
| 20260502013000 | 60 | 13 | 2.6 | 3.5 | 0.00 | 0.00 | 0.00 | 68 | 1012.8 |
| 20260502012500 | 61 | 11 | 1.7 | 2.6 | 0.00 | 0.00 | 0.00 | 59 | 1012.9 |
| 20260502012000 | 60 | 66 | 1.7 | 2.6 | 0.00 | 0.00 | 0.00 | 60 | 1012.9 |
| 20260502011500 | 60 | 40 | 0.9 | 2.6 | 0.00 | 0.00 | 0.00 | 61 | 1012.9 |
| 20260502011000 | 61 | 357 | 2.6 | 2.6 | 0.00 | 0.00 | 0.00 | 58 | 1012.9 |
| 20260502010500 | 61 | 38 | 0.9 | 2.6 | 0.00 | 0.00 | 0.00 | 57 | 1012.9 |
| 20260502010000 | 61 | 108 | 1.7 | 2.6 | 0.00 | 0.00 | 0.00 | 54 | 1012.9 |
| 20260502005500 | 61 | 105 | 0.9 | 3.5 | 0.00 | 0.00 | 0.00 | 52 | 1012.9 |
| 20260502005000 | 62 | 54 | 0.9 | 3.5 | 0.00 | 0.00 | 0.00 | 52 | 1012.5 |
| 20260502004500 | 62 | 40 | 2.6 | 4.3 | 0.00 | 0.00 | 0.00 | 50 | 1012.6 |
| 20260502004000 | 62 | 70 | 1.7 | 4.3 | 0.00 | 0.00 | 0.00 | 49 | 1012.6 |
| 20260502003505 | 62 | 88 | 3.5 | 4.3 | 0.00 | 0.00 | 0.00 | 47 | 1012.7 |
| 20260502002501 | 63 | 74 | 3.5 | 6.1 | 0.00 | 0.00 | 0.00 | 48 | 1012.5 |
| 20260502002000 | 63 | 27 | 2.6 | 6.1 | 0.00 | 0.00 | 0.00 | 46 | 1012.5 |
| 20260502001500 | 63 | 69 | 2.6 | 10.4 | 0.00 | 0.00 | 0.00 | 46 | 1012.2 |
| 20260502001000 | 63 | 57 | 3.5 | 10.4 | 0.00 | 0.00 | 0.00 | 45 | 1011.9 |
| 20260502000501 | 63 | 61 | 6.1 | 7.8 | 0.00 | 0.00 | 0.00 | 45 | 1011.6 |
| 20260502000000 | 63 | 49 | 4.3 | 7.8 | 0.00 | 0.00 | 0.00 | 45 | 1011.4 |
| 20260501235500 | 63 | 33 | 3.5 | 11.3 | 0.00 | 0.00 | 0.00 | 46 | 1011.2 |
| 20260501235000 | 63 | 51 | 5.2 | 11.3 | 0.00 | 0.00 | 0.00 | 44 | 1011.1 |
| 20260501234500 | 63 | 25 | 2.6 | 11.3 | 0.00 | 0.00 | 0.00 | 47 | 1011.3 |
| 20260501234000 | 63 | 67 | 4.3 | 7.8 | 0.00 | 0.00 | 0.00 | 47 | 1011.5 |
| 20260501233500 | 64 | 53 | 3.5 | 7.8 | 0.00 | 0.00 | 0.00 | 45 | 1011.5 |
| 20260501233000 | 64 | 17 | 4.3 | 7.8 | 0.00 | 0.00 | 0.00 | 47 | 1011.5 |
| 20260501232500 | 64 | 68 | 5.2 | 8.7 | 0.00 | 0.00 | 0.00 | 47 | 1011.4 |
| 20260501232000 | 64 | 12 | 3.5 | 8.7 | 0.00 | 0.00 | 0.00 | 46 | 1011.2 |
| 20260501231500 | 64 | 28 | 4.3 | 7.8 | 0.00 | 0.00 | 0.00 | 45 | 1011.2 |
| 20260501231000 | 64 | 20 | 6.1 | 7.0 | 0.00 | 0.00 | 0.00 | 46 | 1011.4 |
| 20260501230500 | 64 | 32 | 4.3 | 7.8 | 0.00 | 0.00 | 0.00 | 44 | 1011.5 |
| 20260501230000 | 64 | 22 | 2.6 | 7.8 | 0.00 | 0.00 | 0.00 | 45 | 1011.4 |
| 20260501225500 | 64 | 38 | 7.0 | 8.7 | 0.00 | 0.00 | 0.00 | 43 | 1011.2 |
| 20260501225000 | 64 | 1 | 7.0 | 9.6 | 0.00 | 0.00 | 0.00 | 42 | 1011.3 |
| 20260501224500 | 64 | 23 | 5.2 | 9.6 | 0.00 | 0.00 | 0.00 | 41 | 1011.3 |